Regional Weather Roundup
Issued by NWS

Home | Current Version | Previous Version | Text Only | Print | Product List | Glossary Off
Versions: 1 2 3 4 5 6 7 8 9 10 11 12 13 14 15 16 17 18 19 20 21 22 23 24 25 26 27 28 29 30 31 32 33 34 35 36 37 38 39 40 41 42 43 44 45 46 47 48 49 50

000
ASUS43 KLMK 281210
RWRKY
KENTUCKY REGIONAL WEATHER ROUNDUP
NATIONAL WEATHER SERVICE LOUISVILLE KY
800 AM EDT THU AUG 28 2014

NOTE "FAIR" INDICATES FEW OR NO CLOUDS BELOW 12,000 FEET
WITH NO SIGNIFICANT WEATHER AND/OR OBSTRUCTIONS TO VISIBILITY.

KYZ001>023-026-027-061>063-070>075-281300-
WESTERN AND SOUTH CENTRAL KENTUCKY

CITY           SKY/WX    TMP DP  RH WIND       PRES   REMARKS
PADUCAH        CLEAR     74  71  91 CALM      30.03R FOG
HENDERSON      PTCLDY    73  70  88 E5        30.04S
OWENSBORO      CLEAR     74  73  96 VRB3      30.05R
HOPKINSVILLE   PTCLDY    72  72 100 E2        30.05R
BOWLING GREEN  CLEAR     73  71  93 CALM      30.05R FOG
GLASGOW        CLEAR     69  69 100 CALM      30.06R FOG
$$

KYZ024-025-028>034-038-045-046-053-281300-
NORTH CENTRAL KENTUCKY

CITY           SKY/WX    TMP DP  RH WIND       PRES   REMARKS
LOUISVILLE/SDF PTCLDY    74  71  91 N3        30.06R FOG
LOUISVILLE/LOU PTCLDY    73  71  93 CALM      30.06S FOG
FORT KNOX      CLEAR     71  71 100 N3        30.06R FOG
$$

KYZ035>037-039>044-047>052-055>060-089>105-281300-
NORTHEAST KENTUCKY

CITY           SKY/WX    TMP DP  RH WIND       PRES   REMARKS
LEXINGTON      CLEAR     72  68  87 N5        30.08R FOG
COVINGTON      MOCLDY    71  66  84 NE7       30.09R
FRANKFORT      CLEAR     70  69  97 CALM      30.06S FOG
$$

KYZ054-064>069-076>088-106>120-281300-
SOUTHEAST KENTUCKY

CITY           SKY/WX    TMP DP  RH WIND       PRES   REMARKS
JACKSON        PTSUNNY   70  68  93 CALM      30.09R FOG
LONDON         SUNNY     69  66  90 CALM      30.09R FOG
SOMERSET       FOG       70  70 100 CALM      30.09R VSB<1/4
MIDDLESBORO    FOG       64  64 100 CALM      30.10R VSB 3/4
MONTICELLO     FOG       70  70 100 CALM      30.09R VSB<1/4
$$




USA.gov is the U.S. government's official web portal to all federal, state and local government web resources and services.